�������l�o���
Date,Time,MP-1(��Sv/h),MP-2(��Sv/h),MP-3(��Sv/h),MP-4(��Sv/h),MP-5(��Sv/h),MP-6(��Sv/h),MP-7(��Sv/h),MP-8(��Sv/h),����,����(m/s),���J
2019/08/29,00:00,0.743,1.032,0.719,1.281,0.941,0.424,0.734,0.696,-,CALM,��
2019/08/29,00:10,0.743,1.029,0.720,1.282,0.942,0.423,0.733,0.696,-,CALM,��
2019/08/29,00:20,0.744,1.031,0.719,1.281,0.942,0.424,0.736,0.696,���k��,0.6,��
2019/08/29,00:30,0.741,1.029,0.720,1.282,0.941,0.423,0.735,0.695,�k�k��,0.9,��
2019/08/29,00:40,0.742,1.032,0.722,1.283,0.941,0.424,0.736,0.695,�k�k��,2.3,�L
2019/08/29,00:50,0.740,1.029,0.720,1.283,0.941,0.424,0.734,0.696,�k��,1.2,�L
2019/08/29,01:00,0.742,1.028,0.720,1.282,0.944,0.422,0.735,0.696,-,CALM,��
2019/08/29,01:10,0.742,1.032,0.720,1.281,0.941,0.423,0.734,0.696,�k��,0.9,��
2019/08/29,01:20,0.744,1.029,0.719,1.285,0.941,0.423,0.736,0.694,�k��,1.2,��
2019/08/29,01:30,0.741,1.030,0.721,1.281,0.939,0.424,0.735,0.695,�k�k��,0.9,��
2019/08/29,01:40,0.743,1.030,0.718,1.282,0.944,0.424,0.735,0.696,���쓌,1.2,�L
2019/08/29,01:50,0.744,1.033,0.720,1.283,0.941,0.423,0.734,0.694,��,0.8,��
2019/08/29,02:00,0.740,1.032,0.720,1.282,0.943,0.424,0.736,0.696,���k��,1.5,�L
2019/08/29,02:10,0.745,1.034,0.722,1.287,0.945,0.427,0.736,0.695,�k,1.2,�L
2019/08/29,02:20,0.745,1.031,0.723,1.286,0.947,0.427,0.737,0.697,�k��,2.0,�L
2019/08/29,02:30,0.748,1.035,0.725,1.287,0.944,0.427,0.735,0.698,���k��,2.3,�L
2019/08/29,02:40,0.746,1.030,0.723,1.286,0.946,0.428,0.736,0.697,���k��,3.6,�L
2019/08/29,02:50,0.743,1.031,0.721,1.284,0.944,0.427,0.738,0.696,���k��,4.6,�L
2019/08/29,03:00,0.746,1.032,0.723,1.284,0.945,0.429,0.737,0.695,���k��,6.1,�L
2019/08/29,03:10,0.748,1.032,0.727,1.291,0.944,0.429,0.738,0.696,���k��,5.2,�L
2019/08/29,03:20,0.747,1.031,0.728,1.289,0.945,0.435,0.738,0.695,�k��,6.4,�L
2019/08/29,03:30,0.751,1.025,0.728,1.288,0.945,0.437,0.736,0.696,���k��,5.1,�L
2019/08/29,03:40,0.749,1.026,0.728,1.283,0.941,0.435,0.735,0.697,���k��,5.5,�L
2019/08/29,03:50,0.750,1.025,0.729,1.282,0.941,0.435,0.735,0.694,��,2.5,�L
2019/08/29,04:00,0.747,1.025,0.726,1.279,0.942,0.434,0.735,0.694,���쐼,2.0,�L
2019/08/29,04:10,0.746,1.025,0.723,1.279,0.937,0.434,0.734,0.693,-,CALM,�L
2019/08/29,04:20,0.745,1.026,0.724,1.276,0.941,0.432,0.734,0.693,���k��,0.9,�L
2019/08/29,04:30,0.743,1.024,0.720,1.273,0.938,0.431,0.733,0.691,���k��,1.7,�L
2019/08/29,04:40,0.741,1.022,0.719,1.273,0.937,0.430,0.733,0.693,�k�k��,1.4,�L
2019/08/29,04:50,0.740,1.022,0.717,1.273,0.936,0.428,0.731,0.692,�k,0.6,�L
2019/08/29,05:00,0.739,1.020,0.717,1.270,0.935,0.426,0.730,0.692,-,CALM,��
2019/08/29,05:10,0.739,1.018,0.717,1.268,0.932,0.425,0.730,0.691,�쐼,2.9,��
2019/08/29,05:20,0.737,1.018,0.715,1.267,0.932,0.424,0.731,0.690,�쐼,3.7,��
2019/08/29,05:30,0.735,1.017,0.714,1.266,0.929,0.423,0.728,0.690,���쐼,3.9,��
2019/08/29,05:40,0.735,1.015,0.712,1.267,0.931,0.423,0.728,0.691,���쐼,5.2,��
2019/08/29,05:50,0.736,1.019,0.713,1.266,0.928,0.421,0.728,0.690,��,5.1,��
2019/08/29,06:00,0.734,1.016,0.713,1.267,0.930,0.422,0.729,0.690,��,5.1,�L
2019/08/29,06:10,0.735,1.017,0.711,1.267,0.930,0.419,0.728,0.689,��,4.7,��
2019/08/29,06:20,0.734,1.015,0.711,1.268,0.928,0.420,0.728,0.690,��,6.8,��
2019/08/29,06:30,0.734,1.016,0.711,1.266,0.927,0.419,0.728,0.689,��,6.3,��
2019/08/29,06:40,0.733,1.015,0.711,1.269,0.929,0.418,0.728,0.690,��,5.7,��
2019/08/29,06:50,0.733,1.017,0.712,1.268,0.931,0.418,0.729,0.691,���k��,6.1,��
2019/08/29,07:00,0.735,1.013,0.712,1.270,0.931,0.420,0.731,0.690,��,7.7,�L
2019/08/29,07:10,0.734,1.015,0.710,1.271,0.926,0.419,0.729,0.690,��,8.5,��
2019/08/29,07:20,0.737,1.015,0.712,1.271,0.929,0.420,0.729,0.690,��,9.4,��
2019/08/29,07:30,0.735,1.017,0.713,1.272,0.928,0.419,0.729,0.691,��,8.6,��
2019/08/29,07:40,0.735,1.016,0.712,1.269,0.931,0.420,0.730,0.690,��,7.4,�L
2019/08/29,07:50,0.736,1.019,0.714,1.275,0.931,0.420,0.730,0.691,��,5.8,�L
2019/08/29,08:00,0.735,1.019,0.713,1.275,0.931,0.419,0.731,0.691,��,5.2,��
2019/08/29,08:10,0.732,1.018,0.714,1.274,0.932,0.418,0.730,0.693,��,4.1,��
2019/08/29,08:20,0.737,1.018,0.714,1.272,0.930,0.420,0.731,0.693,��,6.8,��
2019/08/29,08:30,0.736,1.018,0.714,1.275,0.931,0.419,0.729,0.692,��,5.3,��
2019/08/29,08:40,0.737,1.015,0.711,1.272,0.934,0.421,0.731,0.693,���쐼,5.5,��
2019/08/29,08:50,0.736,1.016,0.714,1.275,0.930,0.418,0.730,0.690,��,4.8,��
2019/08/29,09:00,0.736,1.018,0.712,1.274,0.932,0.420,0.733,0.692,���k��,2.6,��
2019/08/29,09:10,0.735,1.020,0.713,1.276,0.932,0.419,0.732,0.692,-,CALM,��
2019/08/29,09:20,0.736,1.017,0.713,1.278,0.933,0.422,0.731,0.692,-,CALM,��
2019/08/29,09:30,0.736,1.014,0.715,1.275,0.935,0.421,0.732,0.691,���k��,3.9,��
2019/08/29,09:40,0.737,1.019,0.712,1.274,0.932,0.423,0.734,0.691,���쐼,3.2,��
2019/08/29,09:50,0.738,1.019,0.714,1.277,0.936,0.419,0.735,0.690,��,5.4,��
2019/08/29,10:00,0.739,1.019,0.715,1.277,0.936,0.423,0.734,0.692,��,5.4,��
2019/08/29,10:10,0.739,1.021,0.724,1.278,0.937,0.424,0.733,0.693,��,5.7,��
2019/08/29,10:20,0.740,1.018,0.714,1.277,0.936,0.423,0.735,0.691,��,2.6,��
2019/08/29,10:30,0.739,1.023,0.713,1.280,0.939,0.424,0.735,0.692,��쐼,2.6,��
2019/08/29,10:40,0.742,1.022,0.716,1.277,0.940,0.424,0.735,0.691,�쐼,2.3,��
2019/08/29,10:50,0.741,1.021,0.718,1.278,0.940,0.425,0.734,0.692,���쐼,3.8,��
2019/08/29,11:00,0.742,1.021,0.717,1.278,0.940,0.424,0.734,0.693,���쐼,3.7,��
2019/08/29,11:10,0.744,1.021,0.718,1.279,0.938,0.425,0.735,0.694,���쐼,4.8,��
2019/08/29,11:20,0.743,1.024,0.717,1.281,0.940,0.425,0.735,0.694,�쐼,3.4,��
2019/08/29,11:30,0.743,1.026,0.717,1.280,0.941,0.428,0.734,0.694,���쐼,2.0,��
2019/08/29,11:40,0.742,1.025,0.717,1.280,0.940,0.427,0.735,0.695,���쐼,2.0,��
2019/08/29,11:50,0.743,1.024,0.717,1.280,0.938,0.426,0.736,0.693,�k��,3.2,��
2019/08/29,12:00,0.745,1.025,0.719,1.283,0.940,0.426,0.736,0.694,�k��,3.1,��
2019/08/29,12:10,0.743,1.028,0.719,1.284,0.939,0.428,0.736,0.693,�k��,3.6,��
2019/08/29,12:20,0.743,1.028,0.717,1.281,0.940,0.428,0.735,0.696,���쐼,2.3,��
2019/08/29,12:30,0.742,1.027,0.718,1.283,0.941,0.427,0.735,0.694,��쓌,3.1,��
2019/08/29,12:40,0.743,1.027,0.720,1.284,0.942,0.426,0.736,0.696,�쓌,4.5,��
2019/08/29,12:50,0.744,1.028,0.718,1.283,0.944,0.427,0.737,0.694,�쓌,3.6,��
2019/08/29,13:00,0.745,1.030,0.719,1.284,0.945,0.427,0.736,0.695,�쓌,3.9,��
2019/08/29,13:10,0.745,1.023,0.719,1.285,0.943,0.427,0.738,0.693,�쓌,2.5,��
2019/08/29,13:20,0.744,1.028,0.720,1.285,0.944,0.427,0.737,0.696,��쓌,3.5,��
2019/08/29,13:30,0.747,1.024,0.717,1.285,0.943,0.426,0.738,0.694,���쐼,1.2,��
2019/08/29,13:40,0.747,1.025,0.721,1.287,0.943,0.425,0.736,0.695,���k��,3.2,��
2019/08/29,13:50,0.746,1.028,0.719,1.285,0.945,0.425,0.738,0.694,��,2.0,�L
2019/08/29,14:00,0.746,1.029,0.718,1.287,0.945,0.426,0.738,0.693,��,3.6,�L
2019/08/29,14:10,0.745,1.031,0.718,1.286,0.944,0.426,0.737,0.695,��,3.4,�L
2019/08/29,14:20,0.746,1.032,0.720,1.287,0.946,0.424,0.737,0.695,��,5.3,�L
2019/08/29,14:30,0.748,1.032,0.720,1.286,0.945,0.424,0.736,0.695,��,4.7,�L
2019/08/29,14:40,0.747,1.032,0.719,1.285,0.945,0.425,0.736,0.696,���k��,3.1,�L
2019/08/29,14:50,0.749,1.033,0.722,1.285,0.946,0.426,0.736,0.694,���k��,4.3,�L
2019/08/29,15:00,0.747,1.035,0.723,1.289,0.947,0.425,0.737,0.694,���k��,4.4,�L
2019/08/29,15:10,0.748,1.032,0.723,1.287,0.947,0.425,0.737,0.695,���k��,3.0,�L
2019/08/29,15:20,0.747,1.034,0.722,1.287,0.947,0.426,0.737,0.695,�k��,1.1,�L
2019/08/29,15:30,0.747,1.035,0.723,1.287,0.947,0.424,0.737,0.694,�k�k��,0.9,�L
2019/08/29,15:40,0.749,1.033,0.724,1.288,0.945,0.425,0.737,0.694,���k��,2.0,�L
2019/08/29,15:50,0.748,1.036,0.723,1.288,0.948,0.424,0.738,0.696,���k��,2.8,�L
2019/08/29,16:00,0.749,1.039,0.725,1.291,0.945,0.426,0.735,0.694,��,3.9,�L
2019/08/29,16:10,0.749,1.037,0.725,1.286,0.945,0.427,0.736,0.695,��,3.1,�L
2019/08/29,16:20,0.748,1.037,0.726,1.289,0.943,0.428,0.736,0.695,��,2.5,��
2019/08/29,16:30,0.746,1.036,0.724,1.291,0.945,0.425,0.739,0.695,��,1.4,�L
2019/08/29,16:40,0.744,1.038,0.723,1.288,0.944,0.427,0.735,0.696,���쓌,1.2,�L
2019/08/29,16:50,0.743,1.036,0.724,1.286,0.942,0.426,0.737,0.697,�쐼,3.1,��
2019/08/29,17:00,0.744,1.037,0.732,1.286,0.944,0.426,0.734,0.696,�k��,2.9,��
2019/08/29,17:10,0.745,1.035,0.732,1.286,0.944,0.423,0.736,0.696,�k��,3.1,��
2019/08/29,17:20,0.743,1.035,0.723,1.288,0.942,0.425,0.734,0.695,�k��,3.7,��
2019/08/29,17:30,0.743,1.035,0.722,1.285,0.943,0.424,0.736,0.695,��,1.9,��
2019/08/29,17:40,0.742,1.032,0.722,1.283,0.942,0.422,0.734,0.696,�쐼,1.7,��
2019/08/29,17:50,0.741,1.033,0.722,1.284,0.942,0.423,0.735,0.694,�쐼,2.5,��
2019/08/29,18:00,0.739,1.035,0.721,1.286,0.941,0.421,0.735,0.694,��,2.8,��
2019/08/29,18:10,0.740,1.033,0.722,1.286,0.942,0.421,0.734,0.693,��쐼,4.3,��
2019/08/29,18:20,0.740,1.034,0.722,1.284,0.943,0.422,0.735,0.695,��쐼,4.7,��
2019/08/29,18:30,0.740,1.035,0.722,1.285,0.939,0.422,0.733,0.695,�쐼,4.5,��
2019/08/29,18:40,0.739,1.035,0.721,1.286,0.941,0.422,0.735,0.694,�쐼,4.6,��
2019/08/29,18:50,0.739,1.034,0.720,1.285,0.941,0.423,0.735,0.695,��,4.1,��
2019/08/29,19:00,0.741,1.032,0.721,1.286,0.942,0.422,0.734,0.696,�쐼,2.3,��
2019/08/29,19:10,0.740,1.032,0.719,1.286,0.941,0.421,0.735,0.695,��쐼,4.3,��
2019/08/29,19:20,0.741,1.033,0.723,1.285,0.941,0.423,0.733,0.694,���쐼,3.7,��
2019/08/29,19:30,0.741,1.033,0.722,1.283,0.942,0.421,0.736,0.694,�쐼,5.0,��
2019/08/29,19:40,0.739,1.032,0.723,1.285,0.941,0.421,0.736,0.694,���쐼,3.5,�L
2019/08/29,19:50,0.741,1.032,0.723,1.287,0.944,0.422,0.734,0.692,�쐼,2.0,��
2019/08/29,20:00,0.738,1.034,0.721,1.286,0.942,0.423,0.734,0.694,�쐼,2.6,��
2019/08/29,20:10,0.740,1.035,0.723,1.287,0.943,0.422,0.735,0.694,�쐼,3.1,��
2019/08/29,20:20,0.741,1.033,0.720,1.287,0.942,0.423,0.735,0.693,��쐼,3.9,��
2019/08/29,20:30,0.739,1.034,0.722,1.286,0.942,0.422,0.733,0.696,�쐼,4.4,��
2019/08/29,20:40,0.741,1.036,0.721,1.287,0.941,0.423,0.735,0.695,��쐼,4.9,��
2019/08/29,20:50,0.740,1.035,0.722,1.289,0.941,0.424,0.735,0.694,�쐼,3.5,��
2019/08/29,21:00,0.741,1.035,0.722,1.286,0.942,0.422,0.735,0.695,�쐼,3.1,��
2019/08/29,21:10,0.741,1.035,0.722,1.287,0.941,0.423,0.736,0.696,�쐼,3.7,��
2019/08/29,21:20,0.742,1.032,0.722,1.286,0.942,0.423,0.735,0.695,�쐼,3.2,��
2019/08/29,21:30,0.742,1.032,0.722,1.288,0.942,0.421,0.734,0.693,���쐼,2.0,��
2019/08/29,21:40,0.741,1.034,0.719,1.287,0.942,0.422,0.734,0.695,���k��,1.7,��
2019/08/29,21:50,0.742,1.035,0.725,1.287,0.942,0.423,0.735,0.696,��,1.5,��
2019/08/29,22:00,0.742,1.036,0.722,1.290,0.942,0.422,0.736,0.695,�쐼,1.9,��
2019/08/29,22:10,0.743,1.036,0.722,1.287,0.942,0.424,0.733,0.694,�쐼,2.2,��
2019/08/29,22:20,0.743,1.032,0.720,1.287,0.945,0.424,0.735,0.694,�쐼,2.8,��
2019/08/29,22:30,0.742,1.034,0.723,1.290,0.943,0.422,0.734,0.695,��쐼,3.2,��
2019/08/29,22:40,0.742,1.035,0.720,1.287,0.945,0.424,0.735,0.695,��쐼,3.8,��
2019/08/29,22:50,0.741,1.035,0.723,1.288,0.943,0.422,0.736,0.696,�쐼,2.9,��
2019/08/29,23:00,0.744,1.037,0.723,1.288,0.942,0.422,0.736,0.695,�쐼,2.9,��
2019/08/29,23:10,0.743,1.036,0.724,1.288,0.942,0.422,0.736,0.695,���쐼,1.4,��
2019/08/29,23:20,0.740,1.035,0.723,1.289,0.940,0.422,0.734,0.695,��쐼,1.7,��
2019/08/29,23:30,0.743,1.034,0.724,1.290,0.941,0.423,0.736,0.696,�쐼,1.5,��
2019/08/29,23:40,0.742,1.035,0.721,1.287,0.941,0.424,0.734,0.694,��,1.1,��
2019/08/29,23:50,0.742,1.037,0.722,1.289,0.941,0.422,0.735,0.695,��,1.2,��
